Theta_e
311 312 312 311 312 312 312 312 312 312 312 312 312 312 313 312 313 313 313 313 313 313 313 313 314 314 314 314 314 314 314 313 312 311 309 313 322 322 322 319 321 322 323 322 319 316 313 313 312 313 311 307 307 306 310 309 309 307 300 299 297 299 298 301 299 301 303 302 304 305 305 304 303 306 311 317 328 326 331 331 335 338 338 339 342 344 344 344
311 311 311 311 312 311 312 312 312 311 311 312 312 312 312 312 313 313 313 313 313 313 313 313 314 314 314 314 314 314 313 312 310 311 312 322 320 319 321 321 323 323 325 317 315 314 311 311 311 311 308 305 307 305 309 307 310 303 301 300 297 300 301 303 303 303 302 302 304 305 306 305 305 306 308 306 314 322 326 329 332 332 336 338 340 341 342 342
310 311 311 311 311 311 311 311 311 311 311 312 312 312 312 312 312 313 313 313 313 313 313 313 314 314 314 314 314 314 313 311 310 312 316 326 324 321 321 325 323 324 323 316 315 314 311 311 311 309 307 305 304 305 305 307 307 305 302 299 299 303 302 304 303 303 305 305 304 304 305 305 307 306 308 305 309 315 318 326 329 330 332 334 336 339 340 340
310 310 310 311 311 311 311 311 311 311 311 311 311 312 312 312 312 312 312 313 313 313 313 313 313 314 314 314 314 315 313 309 306 313 320 327 328 324 322 326 326 322 324 317 315 314 313 313 311 309 305 304 303 307 301 307 302 305 302 299 301 303 301 303 304 305 306 306 304 305 306 305 307 307 306 306 308 314 320 324 328 329 332 334 336 338 338 339
310 310 310 310 310 311 311 311 311 311 311 311 311 311 312 312 312 312 312 312 312 313 313 313 313 313 314 314 313 315 311 300 306 312 322 334 331 325 324 327 324 322 320 316 315 313 311 310 309 307 304 301 303 304 302 307 306 307 302 303 304 304 301 305 306 305 305 306 305 305 304 304 308 307 306 305 304 308 313 323 327 332 336 335 337 338 338 337
310 310 310 310 310 311 311 311 311 311 311 311 311 312 312 312 312 312 312 312 312 312 312 313 313 313 314 313 313 314 309 291 303 308 333 334 328 325 325 327 324 321 315 313 312 310 309 308 306 303 302 303 301 299 303 306 306 299 304 303 305 305 302 306 306 305 305 305 304 303 305 306 305 305 307 306 305 309 316 323 329 333 337 338 339 338 337 337
309 310 310 310 310 310 311 311 311 311 311 311 311 311 312 312 311 312 312 312 312 312 312 312 312 313 313 312 315 310 304 300 305 317 333 330 327 327 327 326 326 314 313 311 310 308 308 305 304 302 301 301 302 301 303 304 306 302 300 304 304 305 303 305 305 306 306 305 305 306 307 304 304 302 307 306 308 312 315 321 333 335 337 339 337 338 337 336
309 310 310 310 310 310 310 310 311 311 311 311 311 311 311 311 311 311 312 311 312 312 312 312 312 313 312 312 310 303 301 299 309 325 331 329 327 327 328 320 316 311 310 308 308 306 306 303 302 303 301 300 302 301 304 302 304 301 300 303 304 305 305 306 306 306 306 306 307 306 303 303 305 305 305 305 311 317 323 325 330 337 338 338 337 336 336 336
309 309 309 310 310 310 310 310 310 311 311 311 311 311 311 310 311 310 311 311 311 311 311 311 312 312 312 312 305 297 298 308 318 326 330 325 323 325 321 315 314 310 309 309 309 307 305 303 303 303 299 299 303 301 303 300 299 302 302 304 304 303 305 306 306 306 306 306 306 303 303 305 306 306 304 307 313 325 329 330 331 336 335 335 335 335 334 335
309 309 309 309 310 309 309 310 310 310 311 311 311 311 310 310 310 310 311 311 311 311 311 312 312 312 311 310 304 296 303 312 324 328 327 324 318 317 316 315 313 311 308 308 307 306 304 304 303 304 304 301 303 301 304 301 301 305 303 303 303 304 305 306 303 304 305 304 305 302 303 304 306 304 302 317 326 328 329 331 334 334 333 334 335 333 334 333
309 309 309 309 309 309 309 309 310 310 310 310 310 310 310 310 310 310 311 311 311 311 311 311 312 310 311 304 297 296 307 316 324 326 325 321 315 313 314 313 313 310 310 308 306 307 306 306 306 306 303 301 302 302 303 303 305 304 303 303 303 303 304 304 304 303 305 303 305 304 302 304 305 304 303 323 328 329 329 331 333 333 333 334 334 333 333 333
308 309 309 309 309 309 309 309 310 310 310 310 310 310 310 310 310 310 310 310 310 311 311 310 311 311 308 304 298 299 306 316 323 324 324 319 316 316 316 315 314 313 310 307 307 308 308 307 306 304 300 305 299 304 301 306 303 303 302 298 300 302 301 303 302 303 304 302 305 305 302 300 302 301 308 317 327 329 330 331 332 332 332 334 334 332 332 331
308 309 309 309 309 309 309 309 310 310 310 310 309 310 309 309 310 309 310 310 310 310 310 311 310 310 309 300 302 307 310 322 322 321 319 318 317 317 315 316 316 316 313 311 309 309 308 308 307 303 306 304 303 299 305 306 304 303 302 300 299 299 299 302 304 303 302 303 304 303 294 298 301 304 310 325 324 327 329 330 331 331 332 332 330 330 331 332
308 308 308 309 309 309 308 309 309 309 309 309 309 309 309 309 309 310 311 310 311 310 309 309 313 308 308 299 302 305 315 318 319 317 314 314 311 309 310 313 315 316 315 312 310 311 308 309 308 307 309 305 302 308 304 303 303 298 301 301 297 296 296 301 302 302 301 303 303 303 295 299 302 305 309 319 326 325 326 328 330 330 331 331 330 330 331 332
308 308 308 308 308 308 308 309 309 309 309 309 309 309 308 308 310 311 311 311 311 310 309 312 312 309 302 301 309 310 314 312 308 310 315 310 308 307 308 312 313 314 314 312 310 310 309 307 307 304 303 308 307 303 300 301 301 301 296 294 298 295 298 300 302 302 300 302 304 302 296 298 302 305 316 323 326 326 325 327 328 329 330 331 330 331 331 331
308 308 308 308 308 308 308 308 309 308 309 308 308 308 308 309 311 310 310 311 310 309 312 309 308 307 301 298 310 319 312 306 307 310 312 311 309 306 310 310 313 313 312 311 311 309 308 307 303 304 305 305 303 300 299 298 298 300 297 298 296 296 297 297 301 302 302 302 303 301 296 300 301 305 312 324 324 325 324 325 327 329 329 331 330 331 331 331
308 307 307 307 307 308 308 308 308 308 308 308 308 308 308 309 311 310 311 311 311 312 311 305 308 309 301 306 313 307 307 311 315 315 312 312 310 310 310 310 309 310 311 310 309 307 305 304 305 304 305 302 303 301 296 295 295 297 298 296 298 295 297 295 299 302 302 301 299 302 298 300 303 304 312 321 322 323 323 324 325 328 329 330 330 330 331 331
307 307 307 307 307 307 308 308 308 308 308 307 307 307 308 310 310 310 310 312 313 312 311 312 308 307 301 305 299 304 311 309 312 314 313 315 312 311 311 309 309 309 307 304 305 302 303 301 303 298 300 301 301 299 294 292 295 296 296 296 296 296 296 296 296 299 301 301 299 300 300 300 302 304 305 316 321 322 323 324 325 326 328 328 329 330 331 331
307 307 307 307 307 307 308 308 308 308 307 307 307 307 308 310 312 313 310 309 307 305 301 304 302 293 292 299 304 308 310 310 311 311 310 312 312 312 311 311 310 306 302 302 301 301 300 301 301 299 297 297 298 298 297 297 297 296 297 296 297 295 296 295 298 301 300 298 298 299 298 300 302 303 305 312 319 320 322 326 325 325 326 329 328 328 330 330
307 307 307 307 307 307 307 307 307 307 307 305 309 311 312 308 308 307 308 307 304 302 301 302 303 301 299 304 303 309 312 311 306 310 313 313 310 309 308 309 306 306 303 299 300 302 301 296 294 295 298 300 301 301 301 300 298 297 297 296 296 295 296 298 298 300 302 298 298 299 300 300 301 303 305 310 316 319 321 323 324 324 325 326 328 328 331 332
307 306 306 307 307 307 307 307 307 307 305 307 307 305 299 300 295 295 300 303 308 308 305 304 304 303 301 305 306 305 303 305 308 308 312 316 311 307 304 306 303 301 302 302 301 305 301 295 296 298 300 301 302 303 302 301 300 297 297 296 296 297 295 298 298 300 302 298 297 300 299 300 301 304 305 308 311 312 317 321 323 323 325 326 327 328 330 332
306 306 306 306 307 306 307 306 307 306 305 309 306 301 302 302 305 305 302 297 303 306 306 305 306 304 307 306 308 307 304 300 302 307 314 314 309 302 303 303 301 298 303 303 302 299 296 294 298 301 303 304 303 303 302 300 299 298 296 296 295 296 298 299 299 300 300 299 297 299 298 299 301 303 305 306 306 309 315 318 321 324 323 324 326 329 330 331
306 306 306 306 306 306 306 306 306 305 308 307 304 300 300 306 309 310 307 302 300 306 303 303 302 302 303 307 307 308 300 297 297 305 309 312 307 304 304 300 300 300 302 301 296 297 294 296 300 303 303 302 301 301 300 300 300 298 297 295 294 297 295 294 298 299 300 299 298 299 298 299 302 304 305 307 307 308 310 312 316 321 323 322 324 329 330 331
305 305 306 306 306 306 306 306 305 307 308 303 300 300 306 309 309 310 305 298 296 301 303 304 303 303 303 302 307 305 300 299 300 300 312 310 305 306 303 299 299 299 299 300 298 297 296 300 303 302 301 300 299 299 299 298 296 299 298 297 296 296 296 295 296 299 301 300 301 298 296 296 299 299 301 305 307 306 307 310 314 319 322 325 326 329 333 332
305 305 306 306 306 306 306 306 306 308 307 303 302 306 308 309 310 310 304 301 300 299 305 304 304 304 305 310 308 302 303 302 302 304 309 308 306 304 301 303 301 297 299 300 299 298 298 301 303 300 299 299 299 298 298 298 295 297 300 298 297 297 296 296 297 296 295 295 299 296 290 291 298 299 300 303 306 304 307 310 314 318 321 323 323 326 331 334
305 305 305 305 306 305 306 304 306 305 302 301 306 308 309 309 310 311 303 295 291 297 301 297 307 300 310 302 305 304 304 297 304 305 308 307 312 306 303 301 302 297 299 300 299 300 300 302 301 299 299 298 298 297 299 299 295 295 297 300 298 297 297 296 295 295 291 289 298 300 290 288 299 298 301 302 303 303 306 307 309 314 318 320 322 323 328 331
305 305 305 305 305 305 304 302 306 305 300 302 308 310 308 309 313 309 298 292 287 299 297 301 302 301 306 304 304 305 290 294 304 306 305 308 305 310 301 300 301 302 303 304 299 295 301 300 300 300 299 298 297 295 299 299 296 294 300 298 298 297 296 296 295 295 294 299 299 299 297 292 292 297 302 303 302 302 304 306 308 309 314 317 321 324 327 330
305 305 305 305 305 304 303 304 303 300 299 306 309 307 309 311 312 310 298 281 282 301 296 298 300 307 305 305 305 300 300 300 295 301 305 308 308 305 302 300 299 299 301 300 291 301 301 298 299 298 298 297 296 298 301 300 296 297 298 298 297 297 297 297 296 295 296 296 292 296 298 292 291 297 302 304 300 302 303 305 308 310 310 316 320 323 327 330
304 305 305 305 305 305 306 304 303 301 305 308 307 308 309 313 309 300 291 280 296 296 305 296 307 304 303 304 300 301 300 302 297 301 306 307 309 306 298 302 302 301 301 300 295 299 301 301 301 300 298 295 298 301 301 300 296 299 299 299 299 298 298 298 296 295 296 293 288 294 297 290 291 297 298 302 300 300 303 307 311 312 311 312 318 324 327 328
305 304 305 305 305 306 306 306 303 306 307 307 307 309 311 308 302 291 283 277 298 290 297 298 298 294 298 297 298 300 297 299 301 302 304 302 304 306 304 307 303 301 298 301 299 300 300 304 304 301 298 300 301 302 302 300 300 301 299 297 298 297 298 298 298 297 295 287 291 295 297 294 288 295 296 297 299 307 311 311 315 315 313 314 319 323 325 325
305 305 304 305 302 304 304 301 306 308 308 309 309 309 309 304 293 286 279 289 295 295 298 296 294 297 295 294 294 299 298 299 300 300 298 303 301 303 303 301 305 300 299 298 297 299 300 300 298 301 304 302 302 299 301 302 301 299 297 296 296 295 297 296 296 297 288 286 293 297 297 296 287 293 299 307 308 313 313 312 314 316 316 316 320 322 324 325
304 305 305 304 304 306 300 301 304 310 309 310 309 305 301 287 291 282 282 296 286 292 292 292 295 295 294 295 294 296 296 298 300 299 296 298 298 297 298 296 298 292 291 293 293 298 296 297 300 301 304 301 299 297 297 299 299 297 297 296 291 288 289 285 290 285 286 286 294 296 296 292 291 296 305 309 310 313 316 315 315 316 316 319 320 322 324 327
305 304 305 304 306 304 304 308 310 310 311 309 307 302 293 286 278 287 288 291 288 293 292 295 293 293 294 293 294 296 299 294 300 299 298 298 298 298 300 300 300 298 289 295 294 294 295 299 299 300 301 302 300 294 294 293 296 296 294 293 290 285 284 281 286 288 288 292 296 296 296 291 295 299 305 309 313 314 316 318 318 318 320 321 321 323 324 326
304 305 304 306 307 307 308 312 310 310 307 310 304 295 291 281 281 292 291 291 290 294 294 292 293 294 294 292 294 297 293 297 298 298 298 296 296 295 297 300 301 298 297 297 292 293 287 289 295 298 295 302 300 298 298 297 296 296 298 296 293 291 287 281 285 282 284 287 293 297 292 289 290 294 310 312 315 316 317 318 320 321 321 324 323 324 326 328
304 306 307 307 307 307 309 309 311 310 310 306 297 291 282 282 288 287 289 291 292 293 291 294 292 291 292 293 294 296 297 294 298 298 296 296 293 296 296 296 300 300 298 291 296 293 292 292 297 301 300 302 298 301 302 299 297 299 299 299 295 290 297 288 289 289 289 288 288 291 290 297 297 309 313 315 315 316 317 318 321 320 321 323 321 323 325 326
305 309 309 306 306 309 309 309 310 310 308 301 291 286 284 288 285 289 290 294 293 290 291 292 291 290 291 292 294 294 298 296 297 297 296 296 297 295 299 299 298 300 298 292 296 290 293 291 298 299 299 300 300 301 300 302 289 296 296 292 295 302 298 291 290 297 289 288 286 293 294 297 306 306 309 312 312 312 314 315 317 319 320 322 321 323 325 326
306 309 308 310 309 312 310 310 309 309 306 298 290 284 290 290 292 292 294 293 293 293 292 286 289 289 290 290 292 294 296 299 297 296 294 297 295 297 297 298 301 300 300 299 296 299 292 291 297 297 295 300 302 301 302 302 301 298 292 296 301 302 301 295 286 288 286 284 286 294 289 292 295 289 308 308 309 310 311 313 315 317 319 318 318 319 320 323
303 307 312 310 309 311 311 310 310 308 302 294 286 289 291 288 293 294 296 295 295 294 289 287 290 291 290 290 291 293 296 294 296 296 293 296 293 300 298 298 301 300 301 303 297 298 298 290 295 297 297 299 301 300 298 301 302 298 296 303 295 289 288 295 290 283 283 282 285 290 292 293 295 295 302 304 305 307 310 312 313 313 315 317 319 320 322 322
303 305 305 309 312 311 311 312 310 301 296 289 287 284 290 291 294 293 297 296 296 293 289 290 288 292 292 291 292 293 294 292 297 295 291 295 291 300 299 299 299 301 302 302 298 300 300 290 293 297 297 299 299 298 290 295 300 301 301 298 301 298 295 291 290 292 291 284 284 286 291 288 301 301 305 303 306 308 310 311 311 313 315 318 319 320 322 322
305 305 302 312 311 313 312 311 308 298 293 286 288 288 294 290 293 297 298 297 294 292 292 291 292 290 293 293 293 292 294 293 295 297 296 298 294 300 300 301 300 301 302 303 300 302 294 300 288 295 299 298 292 296 294 296 294 295 295 295 297 298 301 299 300 293 291 287 286 286 285 292 301 305 305 306 307 309 311 310 311 313 315 317 318 319 320 322
309 304 304 313 311 313 312 309 301 290 289 294 292 292 291 293 297 297 298 299 297 299 295 294 294 292 294 293 293 295 293 294 294 294 296 298 296 293 302 302 302 300 301 300 299 301 294 295 289 295 294 293 294 300 300 300 300 298 296 294 295 295 292 288 287 296 294 290 286 286 284 295 303 306 307 307 309 311 312 313 313 314 314 315 317 317 318 319
305 297 302 313 313 312 309 298 297 300 297 292 294 295 294 298 295 296 297 299 297 296 299 295 295 294 294 294 295 294 294 293 295 295 296 297 300 300 301 304 304 303 300 296 298 302 301 299 295 290 294 295 299 302 303 303 302 301 300 297 299 299 297 292 285 290 294 294 294 294 288 291 303 306 308 309 310 311 313 313 313 314 314 314 314 313 314 315
303 301 310 313 314 311 305 296 297 294 294 296 297 296 297 296 295 297 295 296 294 297 296 294 294 293 295 294 294 294 295 294 295 294 298 298 301 301 303 304 305 302 303 301 301 301 300 293 291 293 297 298 300 303 303 302 301 299 300 301 299 296 299 297 294 297 293 293 290 291 286 292 303 307 309 310 311 311 311 313 313 312 312 311 311 311 310 311
304 304 305 311 314 310 302 289 289 291 295 297 296 295 297 296 296 295 294 296 295 296 295 295 295 296 295 296 296 293 297 290 295 296 297 299 299 304 304 304 304 302 301 300 297 303 292 295 294 290 289 292 295 298 299 302 301 300 301 302 300 300 299 300 300 300 290 293 293 289 285 292 301 308 309 310 308 306 305 306 307 307 307 308 308 309 309 309
305 306 306 307 310 309 297 297 294 291 294 295 294 294 295 295 297 297 296 295 297 297 295 294 296 297 295 297 295 296 297 295 295 297 299 300 300 304 304 305 305 305 306 305 306 305 296 297 293 287 285 282 282 284 286 289 296 300 300 300 299 299 301 297 290 293 288 294 295 289 288 296 303 306 307 307 305 303 304 304 305 305 305 306 306 306 306 306
300 291 300 303 306 305 301 302 300 296 294 294 291 294 294 293 296 297 297 296 297 297 297 297 297 297 295 294 294 294 294 298 295 297 298 300 300 301 304 306 306 306 306 307 305 305 298 300 299 296 291 289 291 294 296 299 298 294 297 299 299 299 300 300 299 293 290 294 292 296 298 297 299 301 301 302 302 301 300 301 301 301 303 304 305 305 305 306
302 295 295 292 300 300 297 300 298 298 293 297 289 294 292 293 294 295 298 294 297 296 296 295 294 293 294 293 293 293 294 294 297 296 296 297 300 300 303 303 304 304 304 303 306 303 296 292 296 299 297 296 296 296 297 298 298 297 297 298 299 299 300 298 293 290 297 293 289 301 303 300 297 297 297 298 299 298 299 299 300 301 301 301 302 305 305 305
294 298 301 303 295 290 292 293 298 297 297 297 293 296 292 292 293 291 295 296 297 298 294 294 294 294 293 293 294 290 293 294 295 292 297 298 298 301 301 303 301 302 303 303 305 304 299 292 294 297 294 297 298 297 299 298 298 297 297 298 298 300 300 297 296 299 301 293 289 297 302 299 294 293 294 295 296 296 297 298 298 300 301 302 302 302 302 301
303 301 301 302 294 296 298 297 298 296 295 296 294 294 292 292 292 294 294 295 295 295 295 288 292 293 293 294 294 292 294 290 289 297 295 297 297 296 298 300 301 301 301 302 303 305 300 295 296 295 290 291 294 297 298 297 297 296 296 296 298 299 298 298 297 299 300 299 301 300 296 291 292 293 294 295 297 297 297 298 299 298 298 299 300 299 299 299
298 297 295 300 301 298 299 299 297 296 293 294 290 293 293 292 292 294 295 294 290 293 296 293 292 293 294 294 295 293 293 294 294 290 297 298 297 299 297 296 294 299 299 298 298 303 301 292 296 296 292 291 292 295 297 297 297 294 294 295 296 297 297 297 296 296 298 298 297 296 294 289 293 296 295 296 297 297 296 296 297 297 297 297 297 297 298 298
306 306 305 297 294 296 297 297 295 293 291 293 291 292 294 293 292 294 293 297 295 292 294 292 293 294 294 294 294 293 294 295 295 295 294 297 294 297 297 296 297 293 295 297 298 301 302 293 295 295 290 288 292 294 294 297 296 294 292 291 292 294 293 293 291 293 296 294 296 295 293 289 292 295 295 296 296 295 293 294 295 295 296 296 295 295 295 296
308 306 305 302 292 293 294 295 295 293 289 292 294 293 293 293 293 294 290 294 295 295 296 294 295 295 291 294 293 295 297 297 297 297 297 298 299 299 301 298 296 292 290 294 299 297 299 296 292 292 290 288 290 292 293 294 293 289 286 287 289 293 294 295 295 295 294 294 293 292 294 294 294 295 293 293 294 293 292 293 293 294 295 295 295 294 294 295
Wind_Speed
9 8 8 8 9 9 8 8 8 8 7 7 7 7 7 8 8 8 8 8 8 9 9 9 9 9 10 10 10 11 8 10 8 7 8 5 7 11 8 2 11 12 9 10 13 13 12 11 11 10 7 8 5 6 7 7 4 6 7 7 9 6 7 3 2 3 5 4 6 7 8 8 8 9 5 6 2 1 3 4 6 3 1 2 8 13 17 18
9 9 9 9 9 9 9 8 8 8 8 8 8 8 7 7 8 8 9 9 8 9 10 9 10 10 10 10 10 8 9 8 9 7 10 8 6 8 7 1 11 13 12 12 17 15 13 13 11 12 8 7 6 5 8 6 7 8 7 8 8 4 6 4 5 3 4 6 7 7 7 7 7 7 5 8 1 2 6 7 6 8 4 5 8 14 16 16
9 9 9 9 9 9 9 9 9 9 8 9 9 9 9 9 9 9 10 10 10 10 10 10 10 11 11 11 10 8 9 9 8 6 6 4 8 10 9 6 12 13 12 13 13 12 11 12 12 12 8 5 7 6 10 6 9 10 7 8 8 3 4 2 2 3 4 6 7 8 7 9 6 5 6 7 6 4 6 7 8 10 8 9 11 14 14 15
9 9 9 9 9 10 10 10 9 9 9 9 9 9 9 9 9 10 10 10 10 11 11 11 11 11 12 12 8 9 8 9 5 7 6 2 6 12 11 9 12 13 7 6 9 8 5 8 11 11 7 6 6 5 10 7 8 6 8 8 2 3 2 5 1 2 5 6 8 8 9 9 5 8 7 7 8 6 3 4 6 9 10 11 13 15 14 15
9 9 9 9 9 9 10 10 10 10 9 9 9 9 9 9 9 9 10 11 11 11 11 11 12 12 13 12 11 8 7 7 5 2 7 5 5 12 12 10 13 12 8 5 6 5 7 10 11 9 7 6 7 8 9 9 10 2 9 8 2 1 6 4 3 4 6 7 8 8 9 8 10 8 6 7 7 1 2 2 6 5 9 12 16 16 14 14
9 9 10 10 10 10 10 10 10 10 10 10 10 10 9 9 10 10 10 11 11 11 11 11 12 13 14 13 11 7 5 2 3 2 7 2 9 12 12 11 14 9 7 10 9 8 9 10 10 8 8 6 9 8 9 8 10 8 8 9 6 5 7 2 4 6 7 8 9 9 7 9 10 9 6 5 7 5 3 3 3 6 9 10 11 14 13 14
10 10 10 10 10 11 11 11 11 11 11 11 11 10 10 10 10 11 11 11 11 11 11 11 12 14 13 15 8 7 7 4 1 6 6 8 11 13 12 14 13 8 10 10 10 9 10 10 11 8 7 6 8 8 7 10 10 10 6 2 7 6 9 8 9 7 8 9 10 9 9 11 10 10 4 8 8 6 5 2 2 6 9 11 13 13 13 14
10 10 11 10 10 11 11 11 12 12 12 12 11 11 11 11 10 10 11 11 12 11 11 11 12 13 12 9 6 5 7 0 5 6 8 12 12 12 14 14 9 8 10 9 10 9 10 11 11 7 7 6 6 10 7 10 11 10 11 7 6 6 7 8 9 8 8 10 9 9 10 10 10 9 10 10 4 2 3 3 5 9 11 12 13 13 13 14
10 11 11 11 11 11 11 11 11 12 13 13 12 12 12 11 11 11 11 11 11 12 11 11 12 12 9 8 6 8 2 6 4 3 10 11 12 14 17 12 9 8 8 7 7 6 9 9 9 8 2 8 5 9 8 9 9 12 10 6 6 7 7 8 9 9 10 7 7 10 10 10 7 6 12 9 1 0 0 3 7 10 11 11 13 14 13 14
11 11 11 11 11 11 11 12 12 12 13 13 13 13 12 12 12 11 12 11 11 11 11 11 11 11 10 6 6 7 5 2 4 5 9 10 12 15 14 10 12 8 7 6 5 7 9 4 7 6 5 3 4 7 8 11 4 1 7 9 10 9 8 7 9 8 7 8 9 11 10 9 3 4 3 5 3 1 3 5 9 10 11 12 13 13 13 14
11 11 11 11 11 11 12 12 12 12 13 14 14 14 13 12 13 12 12 12 12 11 11 10 9 10 7 5 6 4 4 3 3 5 10 11 12 13 9 10 10 8 5 6 6 7 4 4 4 3 5 3 7 7 8 6 4 4 2 5 7 8 8 8 9 9 8 9 7 8 8 8 9 6 8 5 3 2 4 7 9 10 11 12 14 14 13 13
11 11 11 11 11 11 12 13 13 13 13 14 14 14 14 14 14 15 14 14 13 12 9 8 8 6 6 7 7 3 4 3 5 6 9 12 10 7 6 9 8 6 5 6 5 6 4 3 7 9 1 6 6 4 10 5 4 5 5 7 8 7 8 8 8 6 3 8 6 5 10 11 9 12 3 3 2 4 5 7 9 10 11 12 13 13 13 12
11 11 12 11 11 12 12 13 13 14 14 15 15 15 15 15 16 17 15 13 11 9 8 6 7 4 5 8 3 7 4 5 6 8 8 7 7 5 4 4 7 5 3 3 3 4 6 3 7 9 2 7 6 1 6 4 5 3 7 7 6 8 9 6 4 7 8 6 4 2 8 9 13 11 5 4 4 5 6 7 8 9 11 11 12 12 12 12
12 11 11 12 12 12 12 13 14 14 15 15 15 16 16 17 18 15 13 11 9 7 6 6 5 4 4 7 3 3 4 4 6 8 9 7 9 7 4 4 5 5 2 3 2 1 6 3 6 5 1 6 4 4 8 6 4 7 3 4 6 5 3 7 3 1 8 6 5 7 8 4 8 7 3 2 5 6 7 7 8 9 11 11 12 12 13 13
13 12 12 11 12 12 12 13 14 15 15 16 16 16 18 18 13 11 7 7 7 6 6 7 5 3 5 3 7 5 4 2 7 10 9 10 9 6 7 7 7 6 4 2 2 1 3 5 6 7 7 3 2 6 5 6 5 5 5 8 6 6 4 5 3 1 3 6 5 8 8 8 6 6 5 3 5 6 7 9 10 10 11 11 11 13 13 12
13 13 12 12 12 12 13 13 14 15 15 16 15 18 17 14 12 4 3 5 5 8 7 7 5 6 7 7 5 9 7 7 8 10 11 11 10 8 9 8 7 6 5 5 1 1 4 7 8 6 5 5 7 7 6 6 7 6 7 1 4 4 2 4 8 3 1 2 5 9 8 7 7 4 3 4 5 7 7 9 11 11 12 11 10 12 12 12
13 12 12 12 12 13 13 14 14 15 16 16 17 15 12 10 5 4 6 7 7 6 5 2 3 4 4 5 4 6 7 5 6 6 7 9 10 7 11 10 7 9 6 5 4 3 8 9 3 2 5 7 7 6 7 7 7 7 7 6 2 5 2 4 8 5 2 5 3 5 9 8 2 3 3 4 5 6 7 9 10 10 10 11 9 11 12 12
13 13 13 13 13 13 13 14 15 16 17 16 16 13 7 6 7 7 6 5 3 3 3 3 4 4 8 4 6 6 7 7 5 6 6 6 9 10 10 9 8 9 9 8 5 7 8 8 7 7 7 7 6 8 9 7 7 6 6 6 6 7 7 5 2 9 6 3 7 6 8 9 9 3 4 5 5 6 7 7 10 10 10 9 10 11 13 14
14 14 14 13 13 13 13 13 15 16 16 16 17 7 8 10 7 4 3 4 6 4 5 6 6 5 4 3 4 4 5 4 1 7 7 11 9 9 7 5 11 12 9 8 7 8 7 5 7 8 9 11 11 12 10 2 3 1 3 3 2 4 5 6 3 3 3 6 7 8 9 9 10 7 6 5 5 6 6 7 7 9 10 10 11 11 12 12
14 14 14 13 13 13 14 14 15 16 13 13 6 4 4 5 6 5 5 5 9 10 11 1 8 6 4 4 4 2 1 2 5 5 9 8 11 11 9 9 10 9 7 8 10 8 8 8 10 11 11 11 12 11 8 1 2 1 3 4 5 5 5 3 5 5 3 7 10 11 10 11 9 7 5 5 5 7 8 9 10 11 10 11 11 12 12 12
14 14 14 14 14 14 13 14 13 10 11 9 6 5 3 4 6 1 2 9 12 12 11 11 10 10 5 5 2 1 3 8 4 7 7 9 10 14 10 11 10 9 9 7 8 6 6 9 11 13 11 8 8 7 4 3 4 6 7 7 7 7 7 3 4 4 2 6 8 9 10 11 11 10 6 5 6 9 10 11 12 13 13 11 12 12 12 11
14 14 14 14 14 14 14 14 13 9 10 4 5 5 2 5 6 4 4 5 3 9 10 11 8 10 4 8 2 2 3 3 8 7 7 12 12 13 13 12 12 10 9 6 6 7 9 12 11 10 4 4 6 6 6 7 7 7 7 7 7 7 2 3 7 4 4 6 8 10 11 10 12 12 9 7 9 9 10 11 12 12 12 12 12 12 12 11
14 14 15 15 15 15 15 15 13 9 4 4 3 4 1 5 3 3 4 7 11 5 7 8 8 8 10 8 9 5 10 11 9 12 11 11 13 12 13 13 13 10 10 12 10 9 9 11 12 5 6 7 6 6 6 6 7 6 7 7 8 1 2 2 8 5 4 5 5 3 7 9 11 12 12 9 10 10 11 12 13 12 12 14 15 13 13 14
14 14 14 15 16 15 16 15 14 6 3 4 6 5 4 3 5 4 5 5 7 3 4 2 5 4 5 5 6 13 14 10 11 11 14 12 11 9 10 16 13 11 10 14 14 10 9 4 6 9 8 9 8 9 8 8 8 9 10 8 7 5 5 6 4 2 4 9 9 10 9 10 12 13 12 12 11 11 11 12 12 12 12 12 12 13 13 13
14 14 15 15 15 17 16 16 5 1 4 8 7 0 1 4 4 3 5 5 6 4 4 4 3 3 3 3 6 11 10 8 11 7 14 14 12 10 11 10 10 12 11 13 12 11 9 6 4 9 10 11 10 8 11 9 8 7 10 10 9 9 10 11 9 7 7 8 11 9 7 10 12 15 14 10 9 12 11 12 13 13 13 12 14 14 13 12
13 14 14 14 15 16 19 7 3 3 7 5 4 3 3 5 3 4 5 4 3 6 6 5 4 6 4 5 7 7 3 9 9 7 10 14 10 11 7 9 8 10 13 11 11 6 5 10 9 9 9 9 10 10 9 10 9 7 4 8 10 10 10 7 7 6 6 8 8 8 9 5 5 6 11 11 10 12 11 13 14 12 13 14 15 14 13 13
13 14 14 13 13 15 8 2 5 7 6 5 3 2 5 5 2 4 4 4 4 4 1 5 4 6 4 4 8 7 8 7 6 9 10 11 13 8 10 9 9 5 3 5 3 8 9 9 8 8 8 8 8 9 7 8 7 7 6 3 4 7 8 8 9 9 7 3 4 7 8 9 8 8 7 9 12 13 13 13 13 13 14 16 16 15 14 12
14 14 13 13 12 9 5 8 7 4 3 4 2 5 6 4 2 3 5 3 2 3 4 5 4 3 3 4 8 9 8 2 7 9 11 11 11 10 12 11 12 11 9 8 9 5 12 11 11 12 11 8 8 7 6 11 9 1 6 0 4 4 5 7 8 7 6 4 7 10 9 8 9 7 5 7 12 14 14 15 14 14 15 16 16 15 13 11
14 13 13 12 12 12 7 6 6 6 3 1 5 6 4 2 6 5 3 4 3 1 2 4 1 5 4 5 8 11 5 3 4 9 8 9 10 4 12 12 10 10 12 12 9 6 7 8 12 13 11 10 10 9 7 9 10 6 1 2 4 3 4 7 7 7 5 5 8 9 10 9 9 8 9 8 11 12 10 3 6 8 11 13 12 13 11 11
15 14 12 12 11 6 4 5 9 6 1 3 6 7 4 5 5 5 2 5 2 5 2 4 5 2 1 5 6 9 9 4 3 7 10 10 12 6 3 6 10 8 10 11 13 3 5 4 4 7 10 10 9 9 8 10 8 6 4 6 5 6 6 6 6 6 5 8 10 8 10 10 10 6 7 8 2 5 5 1 2 4 5 8 10 11 10 9
15 14 12 10 6 3 4 6 3 5 4 3 6 7 4 5 5 2 5 3 3 6 3 3 3 2 3 4 4 9 9 6 5 10 11 9 13 9 6 7 5 7 7 9 10 8 7 5 6 6 8 3 4 4 3 6 6 6 6 8 6 6 5 7 6 6 6 8 7 7 8 8 11 7 2 7 4 3 5 5 4 4 3 6 8 10 10 9
15 15 13 9 8 6 7 3 4 3 2 4 7 4 6 5 3 5 1 4 6 4 2 3 0 4 5 1 5 7 8 9 7 10 11 11 11 12 12 9 10 10 10 10 10 8 9 9 7 8 6 8 8 8 8 7 7 8 8 7 9 7 5 7 8 8 9 5 6 3 5 7 12 9 5 5 6 4 5 5 6 5 2 2 7 8 8 7
13 16 18 13 11 10 14 11 3 4 6 7 5 5 6 3 5 6 3 1 2 5 4 3 5 8 5 6 4 4 5 9 11 9 11 13 11 12 14 12 13 11 7 11 9 8 8 11 12 11 9 10 10 9 9 8 9 10 10 9 9 9 8 7 10 6 8 7 7 5 2 10 8 2 7 7 6 6 6 5 6 2 2 3 7 8 8 7
15 18 12 7 7 9 7 6 5 4 4 4 6 7 6 4 3 5 3 1 4 2 4 3 7 6 5 3 6 2 9 3 12 8 11 10 12 11 11 11 12 14 6 4 10 9 6 9 12 12 9 12 14 13 9 8 11 11 11 10 9 8 7 7 8 8 7 5 3 5 5 6 12 3 5 6 6 8 7 6 5 4 4 4 6 8 9 9
18 17 9 7 7 9 10 8 4 4 4 5 7 8 6 6 0 2 3 2 2 4 4 5 5 6 6 4 3 2 5 7 10 9 10 10 11 11 11 12 13 11 8 6 5 2 10 7 3 16 2 13 15 15 13 8 3 8 8 8 9 8 6 9 2 6 4 3 5 6 5 3 2 4 7 6 6 7 7 7 8 8 7 6 7 7 8 9
15 1 1 3 4 3 9 7 7 5 5 6 8 7 7 1 1 2 2 3 1 5 8 6 4 6 4 3 4 0 3 4 11 8 8 11 11 12 11 9 13 15 8 8 6 7 5 7 7 9 4 9 13 15 14 10 8 7 7 9 9 4 6 2 2 4 2 3 7 3 6 7 9 4 6 5 5 6 7 8 8 8 8 9 9 8 6 5
5 4 3 4 3 3 6 8 7 6 5 7 7 7 2 2 4 2 4 4 5 7 5 5 4 4 1 3 2 3 4 5 8 9 7 8 7 10 10 9 10 16 14 9 6 6 5 3 6 8 13 9 1 1 7 12 8 4 9 8 3 2 6 5 5 3 5 7 3 4 7 8 9 3 2 2 6 7 6 6 8 8 8 8 7 6 6 5
6 4 2 5 3 3 6 8 8 5 6 6 7 2 1 3 3 3 3 3 2 2 5 4 1 4 2 3 4 2 2 6 8 9 8 9 2 4 8 8 10 11 15 12 7 5 6 6 7 7 3 8 5 6 7 8 9 10 3 4 8 5 7 8 4 7 6 6 5 8 7 8 8 3 4 1 4 5 6 6 6 7 8 7 5 6 7 10
4 4 5 5 4 5 6 8 6 4 6 6 4 4 3 2 3 2 1 3 2 5 5 1 4 2 3 2 4 1 2 5 5 9 8 7 7 1 6 4 10 13 12 12 9 4 4 5 5 3 7 7 8 9 9 10 11 10 6 8 5 4 7 5 6 6 6 6 5 4 5 3 6 6 2 4 4 3 5 5 7 8 7 7 5 4 6 8
5 5 4 3 4 5 6 6 4 5 5 5 4 3 3 3 2 2 3 3 1 4 1 3 3 4 3 3 4 2 2 4 5 5 7 5 6 2 2 4 2 8 7 10 10 6 3 4 4 7 6 7 9 9 10 10 9 9 9 9 5 6 3 6 1 7 5 5 5 4 5 5 3 4 2 3 3 4 5 5 5 6 7 8 8 7 6 5
3 3 5 3 5 5 5 5 6 6 6 2 2 1 3 1 0 3 2 3 5 4 6 4 4 4 3 4 4 2 3 3 3 6 7 6 9 5 1 1 4 5 6 7 11 6 4 4 7 5 9 9 5 4 5 4 3 7 9 10 9 8 9 9 8 6 7 6 5 3 5 6 5 2 2 1 2 2 2 3 4 4 6 6 7 9 10 8
4 6 5 3 5 7 5 5 2 1 2 3 2 1 3 3 5 1 3 3 6 3 4 5 6 6 4 4 5 3 4 4 2 4 7 6 6 5 5 4 2 3 6 6 10 8 5 4 7 7 7 6 4 7 6 3 2 3 6 7 7 8 8 8 9 5 6 7 5 6 4 3 1 1 1 2 2 3 2 3 4 4 6 9 11 12 12 12
5 3 4 3 5 5 5 2 2 2 2 3 0 3 1 3 3 1 3 2 5 3 3 5 3 4 3 4 2 4 4 4 5 2 1 5 4 6 5 4 3 4 5 2 5 4 3 4 7 9 8 3 5 5 3 1 2 6 6 3 5 9 6 9 5 4 5 3 5 4 5 3 2 1 2 3 6 6 6 5 3 9 11 10 10 11 11 12
4 5 5 4 4 4 4 2 3 1 2 3 0 2 1 2 2 3 4 1 4 2 4 2 3 4 4 2 5 5 5 3 1 2 3 2 3 6 6 3 2 5 6 3 5 9 6 6 7 7 7 8 7 7 7 4 5 2 1 2 4 4 5 4 6 4 5 7 7 6 5 4 2 2 5 7 8 9 9 10 10 9 8 8 9 9 10 10
5 4 4 5 5 4 2 2 1 0 2 2 1 2 1 3 1 4 4 1 2 3 3 4 3 4 4 2 6 6 5 5 3 0 4 0 4 4 7 5 1 1 4 2 1 7 5 1 7 9 10 10 10 11 10 9 7 4 3 2 4 3 2 5 7 7 8 6 8 7 2 4 6 4 6 9 7 9 9 9 9 9 8 7 8 9 9 9
7 3 3 4 2 1 2 1 2 2 3 3 2 2 1 1 5 2 3 2 2 2 4 5 4 3 5 5 6 6 3 3 5 2 2 2 3 5 6 6 8 7 9 7 2 6 1 1 1 3 4 4 3 6 5 2 6 5 4 4 5 3 2 5 4 5 6 4 7 6 6 10 8 6 7 8 7 8 7 7 8 8 8 7 8 8 8 8
2 2 4 3 3 2 1 2 2 2 1 1 1 1 1 0 0 3 1 3 3 3 1 1 3 3 2 3 4 5 3 4 3 4 2 2 3 2 3 4 7 13 13 1 2 2 2 2 4 4 5 5 3 4 5 4 5 5 3 5 5 6 2 3 3 2 6 2 8 7 13 13 9 8 7 7 6 7 7 7 7 7 7 7 7 8 10 11
3 2 1 4 3 3 4 3 1 3 3 2 3 1 1 1 1 2 4 0 0 0 3 4 2 2 3 4 3 3 3 3 1 1 2 3 1 2 4 5 6 8 8 2 2 4 6 3 1 1 7 8 5 4 4 7 8 7 8 7 8 7 6 3 4 4 7 1 1 3 9 12 8 7 6 7 6 6 6 7 7 6 6 7 7 9 11 11
2 3 2 2 2 4 4 6 1 2 3 1 3 2 2 1 3 2 2 2 3 2 3 1 2 4 4 1 3 4 3 6 1 4 4 4 5 2 1 5 6 10 8 7 5 4 4 1 4 6 5 6 8 5 2 6 8 9 10 9 7 7 8 7 6 7 7 6 6 9 14 12 7 6 5 6 6 5 6 5 6 8 8 8 8 10 10 10
5 4 5 2 3 5 3 2 2 3 3 1 1 3 1 1 2 1 2 1 1 1 1 1 2 3 5 4 1 2 5 5 4 1 4 5 1 4 4 2 4 8 8 7 7 5 6 2 9 9 6 4 3 3 0 5 8 12 10 9 7 3 6 7 5 6 3 7 8 9 11 8 5 5 6 6 6 6 7 8 8 8 8 8 9 10 10 10
2 3 1 5 4 4 3 3 3 2 2 3 3 4 1 2 3 3 1 1 1 2 2 2 3 0 1 3 5 6 5 5 3 2 1 6 3 5 4 2 2 1 4 6 4 8 8 3 4 4 5 4 3 4 4 6 10 13 11 12 11 7 4 5 4 5 4 4 5 6 5 3 4 5 6 6 7 8 9 7 7 8 8 8 9 9 9 10
1 1 3 3 2 1 2 3 2 4 1 2 3 2 1 3 3 2 1 2 1 2 3 2 3 4 1 2 4 5 5 6 5 2 0 0 4 3 6 6 4 2 2 3 3 5 3 5 5 6 6 5 4 2 4 4 2 3 8 9 10 8 7 2 4 7 6 4 4 2 4 6 7 6 7 7 8 9 9 7 7 8 9 9 9 9 10 10
Wind_Direction
350 348 345 348 341 335 337 339 338 339 337 336 333 327 328 326 324 319 319 315 313 310 312 310 314 313 309 312 313 311 330 289 288 261 246 251 69 122 165 43 174 196 204 186 156 161 165 169 170 166 180 189 171 200 159 209 187 208 216 231 234 245 232 75 275 17 22 311 2 352 356 339 337 360 42 291 168 96 173 227 144 179 50 306 83 119 135 144
350 347 349 346 341 338 336 336 336 336 337 334 333 329 327 325 322 317 317 315 314 315 316 314 311 311 311 310 308 318 301 283 273 259 242 88 135 163 179 283 167 184 212 180 168 176 164 171 167 180 175 193 158 180 163 179 207 212 222 234 244 236 53 32 55 37 323 5 332 333 338 332 334 331 15 321 124 209 185 198 181 176 149 126 140 139 141 146
350 349 348 345 340 338 337 335 336 335 336 337 334 332 332 328 325 325 318 321 319 318 312 312 315 311 311 311 307 312 291 280 255 225 165 171 169 180 179 170 172 186 207 174 182 179 179 171 166 182 189 180 190 162 201 166 204 225 253 233 241 56 50 48 66 38 330 337 322 327 323 319 330 316 340 293 322 247 225 179 191 195 172 163 147 141 145 149
351 348 347 345 341 338 338 336 336 334 337 332 331 330 328 326 326 323 322 317 316 313 313 311 314 314 310 308 319 299 270 279 232 107 107 120 187 182 177 172 173 192 224 234 192 193 202 166 173 194 175 209 167 197 192 162 211 185 234 242 327 92 226 125 195 12 329 319 318 310 314 292 356 323 305 325 288 197 229 214 201 199 173 159 158 148 155 153
352 351 347 344 342 338 338 334 334 333 331 330 327 325 325 324 323 321 318 313 311 312 313 313 314 312 312 310 305 273 269 262 107 110 52 0 144 166 168 172 169 185 214 175 177 176 182 172 176 194 200 187 167 185 212 178 224 258 234 251 324 165 253 121 280 324 317 312 289 299 298 325 322 290 293 297 300 5 56 152 198 207 166 164 163 158 157 153
351 349 347 344 342 341 336 335 333 330 329 327 325 324 322 323 320 318 314 314 311 312 312 316 315 314 313 315 298 250 260 296 45 62 3 40 144 152 156 159 179 197 193 172 178 172 173 174 182 184 202 201 184 198 187 211 197 236 215 233 222 270 277 300 287 295 301 298 298 297 324 318 298 302 308 310 295 320 12 327 207 176 164 159 161 154 152 154
349 345 344 344 342 340 341 338 334 329 327 326 323 323 323 321 320 319 316 314 312 312 315 315 317 314 322 301 270 254 258 308 62 67 38 120 137 145 149 159 177 191 182 162 171 168 180 173 198 191 203 209 182 216 173 206 201 240 251 168 241 248 256 270 278 287 280 287 292 296 311 292 296 290 356 290 293 287 304 280 198 146 154 155 154 154 156 155
343 343 342 343 343 341 339 338 331 326 326 324 323 322 321 321 321 317 314 311 312 311 314 316 316 314 335 306 246 237 240 353 52 58 93 128 140 141 154 161 175 172 183 178 168 183 176 187 198 190 222 215 164 209 179 215 210 224 244 236 253 246 259 270 271 274 284 280 281 289 289 287 287 306 309 288 301 295 269 230 187 141 150 153 147 153 156 155
342 339 340 340 340 339 336 334 331 327 322 322 320 320 318 320 317 312 309 310 308 309 310 315 312 315 299 278 273 286 152 73 27 39 134 142 137 147 156 160 189 179 180 185 194 186 197 191 210 205 229 212 155 206 181 211 211 223 241 249 259 253 260 268 275 274 271 278 277 280 278 279 285 342 273 276 175 257 225 189 146 144 155 148 150 151 156 158
340 338 336 336 336 335 334 332 327 324 321 318 319 318 318 318 313 309 308 305 304 304 303 309 306 311 294 265 265 260 87 109 94 111 135 135 141 147 168 159 177 181 178 182 198 201 210 170 225 173 304 240 175 202 185 220 38 59 232 250 264 272 277 271 272 277 283 273 274 273 280 278 281 294 226 113 107 168 182 151 142 154 151 149 148 152 157 160
337 336 334 333 332 333 331 328 325 323 321 319 317 317 315 313 308 306 302 299 295 295 296 293 310 302 270 265 273 275 118 175 121 126 142 145 150 157 162 166 180 179 186 168 206 210 182 261 195 161 257 184 190 180 207 211 293 231 317 261 253 254 256 262 261 263 260 257 249 257 270 281 268 251 259 86 121 163 168 146 150 148 150 148 153 155 158 159
335 333 331 330 329 330 330 325 324 323 320 320 318 317 316 314 309 304 299 294 289 286 285 290 276 282 277 262 249 297 154 138 146 134 149 154 157 140 137 172 187 192 186 173 208 204 208 252 194 204 303 140 191 139 212 189 231 244 251 254 244 242 250 236 246 259 247 263 252 264 270 247 228 237 177 89 132 171 165 154 150 143 148 155 156 155 160 161
329 329 327 328 327 330 327 324 322 320 321 320 319 318 315 313 309 302 296 287 276 270 257 245 246 260 287 258 239 91 156 133 144 148 150 166 153 146 139 176 207 228 238 261 178 201 200 235 223 213 245 228 157 252 74 202 219 248 225 255 263 236 241 204 230 253 246 251 285 234 246 221 203 207 106 147 174 172 176 164 158 151 156 157 154 157 163 168
325 326 327 329 327 328 327 323 320 320 321 321 320 319 318 315 309 303 290 275 270 250 237 250 257 246 258 274 99 120 142 124 130 169 167 157 169 168 177 192 217 229 224 287 80 125 192 214 223 253 351 234 177 117 200 182 212 232 169 226 254 252 181 112 224 153 245 96 219 218 254 218 165 122 68 155 179 187 178 165 164 158 164 165 166 170 178 179
324 325 324 326 326 326 326 323 321 321 322 321 321 322 319 317 312 311 290 260 234 215 198 218 229 230 220 246 100 116 101 181 202 203 186 184 197 188 197 163 187 199 203 231 156 179 196 197 212 215 192 206 323 199 205 210 187 225 216 214 205 240 138 131 133 238 333 121 201 214 242 250 173 92 80 142 176 190 192 171 174 174 181 177 173 184 186 184
323 324 324 325 327 327 325 324 322 321 320 321 321 320 320 309 313 15 354 45 124 164 181 194 202 249 295 258 109 132 168 191 207 210 202 211 204 213 163 167 153 170 188 173 154 164 190 183 204 206 173 178 227 214 210 205 203 206 244 209 182 220 134 211 161 173 307 298 155 237 255 214 211 149 101 149 189 191 200 187 177 181 185 184 186 192 193 186
321 322 324 326 328 328 326 324 322 322 321 321 322 315 319 301 310 92 117 146 147 184 205 245 163 204 267 74 152 202 169 165 91 141 174 207 202 177 147 149 164 162 176 157 187 180 166 199 161 236 247 221 208 220 225 219 214 199 204 243 218 240 141 226 129 186 208 283 211 183 250 247 339 124 124 166 189 201 213 199 185 185 189 188 190 201 195 189
323 323 324 326 327 327 326 325 323 322 323 324 321 312 293 302 317 172 157 189 131 183 204 298 239 252 227 201 212 146 111 127 162 112 152 163 194 163 160 161 147 156 160 149 160 192 166 199 184 212 185 215 208 210 223 220 218 197 181 220 203 216 244 305 255 107 263 214 258 241 246 255 250 201 206 184 194 214 217 212 196 192 192 192 199 206 203 193
325 323 323 325 326 325 325 327 323 323 324 328 298 282 250 241 233 247 208 169 178 165 208 173 194 215 19 139 107 131 168 81 190 196 145 161 169 174 171 157 158 153 175 193 151 192 174 211 202 224 206 200 205 214 223 340 4 5 241 245 288 241 176 211 219 327 311 282 264 245 247 237 228 198 194 196 194 216 211 216 215 214 197 195 206 211 207 202
325 322 322 322 324 324 325 326 322 322 339 321 307 225 207 211 187 186 190 223 237 264 312 289 223 303 235 194 138 74 278 211 223 150 140 151 160 165 168 163 164 205 177 210 141 205 174 205 196 210 215 207 209 219 239 7 278 331 246 249 246 251 251 194 252 267 285 283 255 252 249 253 253 240 185 198 199 212 216 207 209 211 211 206 205 213 216 209
323 323 322 322 324 325 326 323 321 331 332 298 275 249 286 354 295 196 343 253 235 247 264 266 249 258 285 55 96 226 205 179 243 161 164 163 173 167 166 178 178 201 201 197 165 127 211 223 217 220 230 224 194 194 223 247 243 250 254 253 248 234 253 177 245 260 231 268 261 251 255 253 251 248 217 187 217 225 217 216 214 213 210 213 211 213 220 210
324 324 323 323 325 324 323 321 323 337 303 263 257 283 352 38 10 5 296 296 254 253 247 252 258 254 265 240 254 340 325 271 199 164 137 183 169 198 161 197 188 209 163 161 147 168 206 222 224 220 186 169 178 194 202 223 224 234 249 249 257 252 293 258 253 237 256 236 258 256 253 250 246 244 235 203 231 238 231 229 223 215 211 213 217 213 216 209
327 325 324 325 323 323 322 319 324 328 276 233 260 282 1 28 354 336 281 279 275 215 234 237 222 236 234 225 230 207 244 233 222 175 169 200 173 219 158 199 194 202 162 192 203 192 213 225 228 171 162 159 173 187 197 214 234 235 229 236 243 358 265 202 166 190 188 246 287 308 284 264 259 253 251 237 233 238 239 234 229 217 217 214 214 208 207 206
327 326 324 324 325 323 320 323 308 257 230 298 289 276 14 339 343 314 264 278 308 246 222 186 246 243 232 229 176 195 209 220 227 197 159 188 187 187 190 200 195 204 197 198 214 214 216 42 159 166 176 200 193 192 207 222 231 223 245 256 258 235 224 256 296 254 276 254 250 267 262 257 243 239 234 227 222 235 236 238 233 224 221 221 223 218 213 211
325 325 325 325 327 325 319 316 271 147 305 275 253 289 354 336 333 332 282 258 220 214 120 163 223 209 123 105 158 199 212 239 216 212 169 194 184 172 207 190 216 205 213 201 218 234 235 122 171 191 188 199 210 202 214 230 243 236 221 246 267 273 269 260 252 266 252 243 198 221 246 246 229 225 232 219 184 219 224 228 226 221 217 214 221 222 212 211
325 324 327 327 328 328 308 283 91 323 299 293 81 104 355 341 335 292 260 273 250 115 195 152 204 121 167 155 161 200 146 224 202 193 177 200 191 204 153 202 204 211 209 204 211 234 248 134 178 194 193 209 219 229 213 216 247 249 226 194 238 247 254 257 244 222 235 251 136 205 246 254 178 223 213 217 217 220 208 217 225 222 218 214 217 219 212 208
326 324 325 330 331 336 305 89 357 298 269 129 90 351 339 327 334 218 255 206 230 89 179 64 210 96 237 138 171 177 201 160 128 182 190 193 200 197 203 187 187 266 229 162 204 215 218 175 184 183 195 208 209 222 197 208 236 240 95 224 246 245 231 228 227 223 254 15 131 213 231 267 254 222 209 197 222 225 219 217 222 224 218 217 215 215 212 206
323 323 324 327 333 328 313 310 303 272 342 58 4 341 329 325 239 223 254 241 121 169 147 152 21 142 268 152 190 211 27 81 187 172 198 173 209 167 233 197 199 190 162 177 217 108 187 187 201 210 219 223 223 222 173 202 228 318 104 161 243 243 230 220 220 220 240 265 229 194 208 248 250 239 205 204 227 228 232 231 225 226 227 221 218 211 206 203
322 322 324 325 323 300 279 258 284 271 42 50 339 320 332 291 231 261 273 257 98 200 4 126 141 195 122 163 199 230 257 311 317 122 162 170 208 266 202 225 212 195 183 199 237 134 201 208 207 216 215 223 231 233 214 202 224 209 132 255 267 255 231 221 215 221 194 227 240 224 197 244 253 233 204 207 244 243 243 275 291 263 239 228 220 214 202 198
320 322 321 325 313 248 222 234 244 258 299 321 312 314 288 212 214 217 188 236 104 154 219 92 208 65 221 217 200 201 221 185 45 150 166 178 176 224 307 321 216 184 188 204 247 33 80 60 345 231 210 228 230 224 213 207 230 48 193 220 194 198 193 197 234 235 220 233 238 232 181 235 262 251 233 215 252 9 9 273 345 322 259 232 214 209 200 205
318 316 316 316 294 335 302 251 216 228 247 294 308 291 238 217 247 248 204 64 255 93 184 179 142 231 268 306 198 169 217 211 150 158 159 175 174 210 181 187 202 206 200 207 229 204 189 155 204 202 237 247 291 174 202 232 217 223 225 223 190 186 181 205 203 222 233 239 236 187 217 218 257 236 220 65 80 15 357 337 315 332 301 213 200 198 189 184
315 312 306 295 276 280 247 46 70 106 111 315 304 242 212 202 208 220 146 110 250 76 329 56 218 324 309 143 291 168 188 190 179 179 173 182 171 191 191 195 175 190 202 199 213 196 214 215 216 211 180 234 193 219 160 200 197 222 228 230 222 198 190 210 205 207 218 240 112 128 182 219 239 263 39 43 23 13 0 339 324 293 269 196 177 178 168 166
308 308 300 280 262 239 240 260 273 294 300 286 272 221 214 223 213 211 207 231 113 350 93 309 330 311 311 258 168 175 184 199 168 194 188 182 196 195 195 214 178 211 214 188 216 176 213 211 208 216 204 205 229 215 170 198 200 213 220 214 221 217 199 223 219 224 238 196 125 224 221 259 269 174 38 6 12 6 3 350 14 322 169 154 148 153 155 157
306 306 296 276 248 236 242 242 250 273 265 233 226 188 246 224 217 33 307 318 29 21 299 334 315 286 251 278 75 200 179 166 170 179 190 183 205 195 188 220 210 200 252 165 218 204 220 190 205 202 211 186 213 227 207 207 185 209 220 225 229 242 231 224 235 235 233 255 123 147 214 240 238 77 52 49 16 14 16 12 48 103 137 131 117 125 128 132
306 299 274 260 242 240 228 230 225 221 256 234 202 204 187 210 54 143 190 61 46 322 310 329 289 282 169 194 102 181 322 159 196 174 197 189 198 207 190 195 197 218 198 220 173 259 231 253 98 188 235 172 204 210 239 260 239 200 218 240 243 240 246 256 357 311 314 257 201 171 247 273 9 109 72 57 39 41 33 41 38 57 76 99 127 133 142 142
298 345 249 223 216 190 202 201 203 212 243 213 201 197 215 272 203 174 54 343 15 332 325 284 236 247 207 178 140 332 136 291 167 204 190 200 195 205 198 191 194 201 198 214 147 212 180 234 146 165 169 202 203 197 209 224 229 159 210 218 229 277 252 240 160 91 163 252 260 212 229 225 128 138 91 52 43 34 46 53 65 66 65 70 60 59 68 122
317 293 205 165 165 137 174 178 180 199 231 225 205 207 223 116 11 55 43 346 9 325 300 292 115 307 201 187 159 142 127 213 177 212 188 189 190 213 194 195 196 195 216 225 184 241 258 187 137 175 195 204 223 213 226 209 252 162 219 216 121 232 290 251 251 171 234 245 230 207 244 245 208 206 211 75 44 32 41 58 69 72 72 76 80 96 103 91
311 283 284 72 50 137 157 167 176 203 227 211 213 343 45 234 123 337 26 308 214 258 298 281 88 290 157 259 169 60 116 239 168 209 213 182 179 175 196 197 182 212 209 216 260 168 240 244 175 189 170 145 167 206 214 221 227 240 292 8 218 180 215 205 250 237 243 236 252 231 236 249 252 125 168 115 43 45 46 49 58 65 69 77 98 123 127 127
267 261 141 51 111 142 156 167 209 208 205 206 200 212 170 314 78 269 13 336 297 313 272 65 310 114 316 270 356 213 354 244 170 216 217 184 215 153 221 217 188 210 218 218 224 164 205 249 154 133 199 149 184 201 213 189 195 235 266 250 232 278 240 211 211 256 254 258 236 240 198 250 18 99 132 104 78 59 65 62 55 57 58 62 65 103 137 154
236 208 111 91 120 154 155 189 227 205 212 211 196 212 73 207 193 201 225 285 233 250 259 305 189 288 253 329 320 350 10 306 216 211 241 161 201 188 235 209 228 174 213 213 230 204 211 212 262 143 143 168 201 195 221 202 192 194 218 231 190 235 2 308 217 237 243 252 246 255 243 96 40 36 71 91 83 87 69 85 68 54 50 46 46 47 49 65
237 245 106 109 150 149 178 228 207 188 207 71 334 88 179 266 207 194 230 248 266 253 297 280 286 257 353 312 183 37 296 270 229 225 216 184 212 171 53 98 186 167 175 206 227 197 225 190 232 176 185 206 185 62 20 332 300 237 218 223 221 216 209 212 233 197 252 254 261 238 248 106 81 302 60 38 72 142 174 97 90 62 37 36 50 52 50 62
246 179 120 108 150 189 248 193 120 14 250 203 141 165 124 3 254 256 244 169 247 262 185 279 265 279 281 267 310 324 309 283 237 248 209 247 177 307 92 354 285 191 188 189 212 185 240 223 224 236 220 223 94 100 71 23 281 296 254 255 245 240 235 233 243 203 213 242 262 276 295 127 79 41 92 115 199 93 57 41 68 67 64 55 46 43 45 45
216 89 58 152 167 242 269 150 120 193 219 57 197 215 259 224 276 47 268 189 237 218 255 239 268 268 219 288 349 310 342 274 304 268 30 233 85 39 18 328 250 190 246 167 173 112 101 220 218 237 230 185 163 153 151 168 227 210 201 281 254 240 256 260 271 320 254 180 228 224 238 98 119 193 111 101 90 53 37 9 59 61 46 46 50 49 46 45
131 134 132 138 210 273 260 188 179 147 97 118 185 82 174 315 280 213 231 160 267 173 244 260 236 231 302 307 291 292 347 304 200 287 200 227 116 36 24 19 236 197 233 157 238 144 199 208 249 211 210 205 194 190 195 162 228 240 128 48 342 296 272 278 292 242 263 245 254 264 252 102 116 148 102 85 68 60 41 43 45 58 51 47 48 46 48 47
145 115 124 138 197 252 266 29 334 101 99 122 173 121 157 187 205 313 312 284 217 273 264 223 288 339 271 291 284 283 277 263 276 341 344 275 72 49 39 16 256 293 22 67 325 163 229 157 201 222 210 205 200 206 207 201 195 117 97 70 38 4 338 225 223 226 245 217 208 222 198 142 121 134 104 89 77 66 52 49 59 53 51 49 46 46 42 46
181 158 151 153 166 182 92 9 318 319 131 151 150 84 297 162 149 181 267 217 316 284 278 302 281 275 275 279 263 250 232 198 247 324 283 122 110 71 32 55 59 57 12 356 195 167 154 114 313 352 300 288 351 1 30 356 157 194 103 55 41 30 342 275 310 249 243 187 226 238 126 140 143 110 70 63 62 70 50 42 43 43 43 49 52 53 54 52
227 196 160 170 150 215 135 190 164 238 136 300 225 2 118 12 157 155 265 225 122 321 182 310 342 286 274 282 271 260 258 242 205 258 12 322 64 60 75 54 73 33 354 329 347 143 168 179 32 8 43 41 359 348 21 0 128 78 86 52 39 24 355 267 247 302 356 312 230 106 138 134 116 80 61 61 52 54 43 40 39 38 37 39 45 58 59 55
219 79 316 23 281 141 187 141 149 109 89 254 78 286 77 130 144 158 161 230 311 249 269 163 261 32 294 296 297 269 240 244 217 336 342 27 222 101 159 63 59 23 8 99 257 256 206 195 52 31 45 23 16 64 73 79 72 76 65 48 43 31 40 85 33 13 319 288 287 194 141 116 93 72 65 64 62 54 54 50 44 41 47 50 53 54 54 50
339 86 78 351 264 78 23 79 102 101 119 299 121 254 118 56 96 71 337 166 193 123 314 107 323 23 12 2 257 250 14 246 117 52 24 3 30 326 58 357 14 19 26 37 12 323 246 166 148 125 90 32 8 345 107 103 98 76 57 48 41 47 51 50 47 20 20 43 64 99 81 77 68 79 75 74 71 71 63 60 58 53 46 47 55 57 56 56
169 185 144 196 83 102 110 137 152 214 140 72 221 85 25 43 79 103 146 285 124 116 252 201 33 43 35 56 71 70 52 29 24 22 23 327 114 44 133 129 297 326 35 36 355 308 281 141 144 131 121 104 90 274 320 130 109 85 63 48 35 60 71 52 57 33 72 75 77 99 100 86 69 75 88 88 86 87 73 63 64 55 51 51 54 57 55 54
1 350 45 171 147 105 147 177 201 212 173 180 220 111 257 46 61 24 36 295 90 62 42 52 25 115 130 68 77 78 46 21 334 340 310 341 17 21 332 96 340 298 29 36 11 306 284 126 171 163 164 146 136 137 149 110 104 91 63 40 31 30 44 27 32 3 350 102 120 130 134 114 112 106 93 94 88 73 67 59 59 55 55 58 57 54 51 48
230 88 279 244 149 149 212 136 163 220 157 51 4 68 314 65 40 329 155 119 101 57 37 14 20 293 183 206 75 54 17 336 329 323 273 332 35 31 61 73 39 45 42 69 284 287 306 157 169 193 204 159 158 198 150 203 169 173 37 4 354 14 8 80 63 33 27 348 166 191 99 105 129 127 111 90 85 76 62 54 58 61 58 57 58 56 56 52